ATLAS 5 CENTAUR DEB, 43988

Orbit data source: Space-Track

ATLAS 5 CENTAUR DEB, 43988 is space debris in HEO originally from a launch on Wed, 17 Sep 2014 UTC launched from the Air Force Eastern Test Range (AFETR). Debris objects in space refer to the collection of defunct objects orbiting the Earth. Examples of debris include non-operational satellites, rocket bodies, and fragments generated from explosions, collisions, or faulty payload assembly.

Loading next visibility...
Identifier
43988, 2014-055AT
Orbit
HEO
Country
Flag of USUS
Related business
Flag of USUnited Launch Alliance/Lockheed Martin (US)
Manufacturer
Unknown
Mission
Spacecraft
Bus & Motor
Unknown
Mass
Unknown
Launch date (UTC)
2014-09-17 (12 years ago)
Launch vehicle
Unknown
Launch site
Air Force Eastern Test Range (AFETR)
Object type
Payload
Rocket body
Debris
Shape & HBR
Unknown shape, 1.1 m
Radar Cross Section
Medium (>0.1 m² and <1 m²)

Expand to show TLE details & history
Last TLE update: 5 days ago

TLE from 5 days ago
0 ATLAS 5 CENTAUR DEB
1 43988U 14055AT  26232.48679128 -.00000174  00000-0  00000-0 0  9990
2 43988  20.3267 132.1915 4730295 186.3630 164.3907  1.87310537 54579
Epoch: 2026-08-20T11:40Z
TLE epoch observation values (Epoch: 2026-08-20T11:40:58.766Z)
Latitude
0.00006°
Longitude
-11.8663°
Altitude
34,362.95 km
Speed
2.287 km/s
True Right ascension
08h 48m 48s
True Declination
0° 00' 00"
Sunlit
Object was in daylight at epoch
Visualization orbit readout
Latitude
Unknown
Longitude
Unknown
Altitude
Unknown
Speed
Unknown
Apparent Right ascension
Unknown
Apparent Declination
Unknown
Sunlit
N/A
Visualization observer readout
Local Sidereal Time
01:51:56
Azimuth
Unknown
Elevation
Unknown
Doppler factor
Unknown
Orbital elements
Apogee altitude
34,573.228 km
Perigee altitude
8,272.053 km
Semi-major axis
27,800.778 km
Eccentricity
0.47303
Inclination
20.3267°
RAAN
132.1915°
Arg. of periapsis
186.363°
True anomaly
173.63856°
Mean anomaly
164.3907°
Eccentric anomaly
169.38379°
Mean motion
0.46823 °/min
Orbital period
768.86 mins
BSTAR
0
Loading maneuver chart data...
Computing Atmospheric mass density...

Documentation

Showing up to 5 results
|